Вернуться в каталог

FENGYUN 1C DEB

LostPO
NORAD 38131·DEBRIS·🇨🇳 China

Запущен May 10, 1999 с Taiyuan Satellite Launch Center

Loading…

Ближайшие Пролёты (ближайшие 24 часа)

TLE

УстаревшееSource: Space-Track

Эпоха: Dec 24, 2020, 20:58 UTC

1 38131U 99025EQC 20359.87416144  .00001148  00000-0  73321-3 0  9998
2 38131  97.8938  35.4924 0125379 234.5870 124.3538 14.01362866554282

Отслеживайте FENGYUN 1C DEB в реальном времени с AllMySat

Download on the App Store